OPS 4682 DEB, 38427

Orbit data source: Space-Track

OPS 4682 DEB, 38427 is space debris in LEO originally from a launch on Sat, 03 Apr 1965 UTC launched from the Air Force Western Test Range (AFWTR). Debris objects in space refer to the collection of defunct objects orbiting the Earth. Examples of debris include non-operational satellites, rocket bodies, and fragments generated from explosions, collisions, or faulty payload assembly.

Loading next visibility...
Identifier
38427, 1965-027EG
Orbit
LEO
Country
Flag of USUS
Related business
Manufacturer
Unknown
Mission
Spacecraft
Bus & Motor
Unknown
Mass
Unknown
Launch date (UTC)
1965-04-03 (61 years ago)
Launch vehicle
Unknown
Launch site
Air Force Western Test Range (AFWTR)
Object type
Payload
Rocket body
Debris
Shape & HBR
Unknown shape, 0.1 m
Radar Cross Section
Small (<0.1 m²)

Expand to show TLE details & history
Last TLE update: 15 hours ago

TLE from 15 hours ago
0 OPS 4682 DEB
1 38427U 65027EG  26104.94692229 -.00000630  00000-0 -23851-2 0  9992
2 38427  90.2365 359.2872 0032304 350.2834   9.7654 12.91420405653580
Epoch: 2026-04-14T22:43Z
TLE epoch observation values (Epoch: 2026-04-14T22:43:34.085Z)
Latitude
-0.0001°
Longitude
175.27931°
Altitude
1,274.326 km
Speed
7.23 km/s
True Right ascension
23h 57m 08s
True Declination
0° 00' 00"
Sunlit
Object was in daylight at epoch
Visualization orbit readout
Latitude
Unknown
Longitude
Unknown
Altitude
Unknown
Speed
Unknown
Apparent Right ascension
Unknown
Apparent Declination
Unknown
Sunlit
N/A
Visualization observer readout
Local Sidereal Time
20:06:24
Azimuth
Unknown
Elevation
Unknown
Doppler factor
Unknown
Orbital elements
Apogee altitude
1,317.809 km
Perigee altitude
1,268.247 km
Semi-major axis
7,671.165 km
Eccentricity
0.00323
Inclination
90.2365°
RAAN
359.2872°
Arg. of periapsis
350.2834°
True anomaly
9.82844°
Mean anomaly
9.7654°
Eccentric anomaly
9.79689°
Mean motion
3.23036 °/min
Orbital period
111.44 mins
BSTAR
-0.0023851
Loading maneuver chart data...
Computing Atmospheric mass density...
Loading historical data...
Loading historical data...
Loading historical data...
Loading historical data...
Loading historical data...
Loading historical data...
Loading historical data...

Documentation

Showing up to 5 results
|